Flag for Jamaica Weather past 2 weeks in Montego Bay, Jamaica

Now
84 °F

Passing clouds.


Feels Like: 94 °F
Forecast: 82 / 90 °F
Wind: 7 mph from Southeast

Location: Montego Bay / Sangster

Current Time: Aug 31, 2015 at 12:26:07 AM

Latest Report: Aug 31, 2015 at 12:00 AM


Visibility: N/A

Pressure: 29.98 "Hg

Humidity: 79%

Dew point: 77 °F

Location of Montego BayLocation

Historic Weather in Montego Bay — Graph

°F

Montego Bay temperature yesterday

Maximum temperature yesterday: 91 °F (at 10:00 AM)
Minimum temperature yesterday: 81 °F (at 2:00 AM)
Average temperature yesterday: 85 °F

Past Weeks' High & Low Weather Summary

 TemperatureHumidityPressure
High91 °F (Aug 30, 10:00 AM)100% (Aug 24, 6:00 AM)30.01 "Hg (Aug 24, 6:00 AM)
Low36 °F (Aug 24, 6:00 AM)55% (Aug 19, 9:00 AM)29.80 "Hg (Aug 28, 3:00 PM)
Average84 °F77%29.92 "Hg
* Reported Aug 15 11:00 PM — Aug 30 11:00 PM, Montego Bay, Weather by CustomWeather, © 2015

Note: Actual official high and low records may vary slightly from our data, if they occured in-between our weather recording intervals... More about our weather records

Advertising

Montego Bay weather history for previous 24 hours

 ConditionsComfort  
Time TempWeatherWind HumidityBarometerVisibility
11:00 PM
Sun, Aug 30
82 °FPassing clouds.8 mph84%29.98 "HgN/A
10:00 PM84 °FPassing clouds.3 mph84%29.95 "HgN/A
9:00 PM84 °FPassing clouds.2 mph84%29.92 "HgN/A
8:00 PM84 °FPassing clouds.2 mph84%29.92 "HgN/A
7:00 PM84 °FPassing clouds.3 mph84%29.89 "HgN/A
6:00 PM86 °FScattered clouds.12 mph79%29.89 "HgN/A
4:00 PM88 °FScattered clouds.12 mph79%29.89 "HgN/A
3:00 PM88 °FScattered clouds.8 mph79%29.89 "HgN/A
2:00 PM88 °FThunderstorms. Scattered clouds.14 mph75%29.89 "HgN/A
1:00 PM91 °FPassing clouds.15 mph67%29.92 "HgN/A
12:00 PM88 °FPassing clouds.16 mph75%29.92 "HgN/A
11:00 AM90 °FPassing clouds.9 mph71%29.95 "HgN/A
10:00 AM91 °FPassing clouds.7 mph63%29.95 "HgN/A
9:00 AM88 °FPassing clouds.3 mph66%29.95 "HgN/A
8:00 AM84 °FPartly sunny.3 mph70%29.92 "HgN/A
7:00 AM82 °FScattered clouds.3 mph74%29.92 "HgN/A
6:00 AM82 °FPassing clouds.7 mph74%29.89 "HgN/A
4:00 AM81 °FThundershowers. Passing clouds.3 mph79%29.86 "HgN/A
3:00 AM81 °FPassing clouds.2 mph79%29.86 "HgN/A
2:00 AM81 °FPassing clouds.2 mph79%29.86 "HgN/A
1:00 AM82 °FPassing clouds.2 mph74%29.89 "HgN/A
12:00 AM82 °FPassing clouds.3 mph74%29.89 "HgN/A
Weather by CustomWeather, © 2015

See weather overviewHow to use our weather pages